sat.trackr.live / text

‹ back to catalog

YAOGAN-30 07B

NORAD 45461 · 2020-021B

PAYLOAD ACTIVE UNKNOWN

§ Identity

Operator
Country
PRC
Launch date
2020-03-24
Launch site
XICLF
Launch vehicle
Mass (kg)
RCS (m²)

External: N2YO · Heavens-Above · Gunter

§ Orbital elements

Epoch: 2026-09-20T04:57:16.522272Z

Period
95.80 min
Inclination
34.9957°
Eccentricity
0.0002810
Mean motion
15.03057147 rev/d
Perigee alt
555.5 km
Apogee alt
559.4 km
Semi-major
6,935.6 km
B*
1.2447e-4
RAAN
351.1696°
Arg perigee
321.5681°
Mean anomaly
38.4827°
Rev number
35,479

§ Raw data

YAOGAN-30 07B1 45461U 20021B   26263.20644123  .00001682  00000+0  12447-3 0  99932 45461  34.9957 351.1696 0002810 321.5681  38.4827 15.03057147354790

JSON: /api/v1/satellites/45461 · /tle

For live sub-satellite position, see the globe view (requires WebGL).

§ Visibility from observer

Set your observer location to see the next 7 days of passes ≥ 10°. The values pass through the URL so the page stays shareable.

No JS? Fill the form by hand. The geolocation button needs JavaScript.